Regional Weather Roundup
Issued by NWS

Home | Current Version | Previous Version | Text Only | Print | Product List | Glossary Off
Versions: 1 2 3 4 5 6 7 8 9 10 11 12 13 14 15 16 17 18 19 20 21 22 23 24 25 26 27 28 29 30 31 32 33 34 35 36 37 38 39 40 41 42 43 44 45 46 47 48 49 50

000
ASUS43 KOAX 142302
RWRNE

WEATHER ROUNDUP FOR NEBRASKA
NATIONAL WEATHER SERVICE OMAHA NE
600 PM CDT SUN SEP 14 2014

NOTES: SATELLITE DATA IS BEING USED TO AUGMENT CLOUD COVER ABOVE
       12000 FEET.
       "FAIR" INDICATES FEW OR NO CLOUDS BELOW 12,000 FEET WITH NO
       SIGNIFICANT WEATHER AND/OR OBSTRUCTIONS TO VISIBILITY.

  * THESE STATIONS DO NOT REPORT WEATHER SUCH AS RAIN...SNOW OR FOG.

NEZ001>004-019>022-054>056-150000-
NEBRASKA PANHANDLE

CITY           SKY/WX    TMP DP  RH WIND       PRES   REMARKS
SCOTTSBLUFF    MOSUNNY   69  51  52 NE10      30.02R
ALLIANCE       MOSUNNY   71  53  52 N10       30.01R
CHADRON        MOSUNNY   62  45  53 NE16      30.05R
KIMBALL        PTSUNNY   76  45  33 CALM      29.99F
SIDNEY         MOSUNNY   76  45  33 S5        30.00F
$$

NEZ057>060-069>072-079>082-150000-
SOUTHWEST NEBRASKA

CITY           SKY/WX    TMP DP  RH WIND       PRES   REMARKS
NORTH PLATTE   MOSUNNY   71  55  56 SE10      29.99F
IMPERIAL       SUNNY     76  56  49 SE12G23   29.95F
LEXINGTON      CLOUDY    68  57  66 SE14      30.01S
MCCOOK         SUNNY     75  57  53 S14       29.97F
OGALLALA       MOSUNNY   75  59  55 S9        29.98R
$$

NEZ005>010-023>029-035>040-094-150000-
NORTH CENTRAL NEBRASKA

CITY           SKY/WX    TMP DP  RH WIND       PRES   REMARKS
VALENTINE      CLOUDY    61  44  53 NE14      30.06S
AINSWORTH      CLOUDY    60  48  64 E9        30.05F
BROKEN BOW     CLOUDY    69  53  56 S12       30.03R
O`NEILL        CLOUDY    64  53  69 NE9       30.06S
ORD            CLOUDY    66  53  63 E6        30.03S
THEDFORD       CLOUDY    70  55  57 SE10      30.02F
$$

NEZ041-046>049-061>064-073>077-083>087-150000-
SOUTH CENTRAL NEBRASKA

CITY           SKY/WX    TMP DP  RH WIND       PRES   REMARKS
GRAND ISLAND   CLOUDY    69  53  56 SE14G20   30.03F
AURORA         CLOUDY    68  51  53 SE9       30.05S
HASTINGS       CLOUDY    67  51  56 S14       30.04S
HEBRON         CLOUDY    69  51  53 SE9       30.05S
HOLDREGE       PTSUNNY   68  53  59 SE14G21   30.00F
KEARNEY *      CLOUDY    66  54  63 SE9       30.03F
YORK           CLOUDY    66  54  63 SE7       30.06R
$$

NEZ011>018-030>034-042>045-150000-
NORTHEAST NEBRASKA

CITY           SKY/WX    TMP DP  RH WIND       PRES   REMARKS
NORFOLK        CLOUDY    68  51  54 SE8       30.06F
ALBION         MOSUNNY   68  51  54 S9        30.05S
BLAIR          MOSUNNY   71  52  51 SE7       30.07F
COLUMBUS *     MOSUNNY   70  50  49 SE7       30.06F
FREMONT        MOSUNNY   71  50  46 SE7       30.07S
TEKAMAH        CLOUDY    69  51  52 E6        30.07F
WAYNE          CLOUDY    66  51  57 SE8       30.08F
$$

NEZ050>053-065>068-078-088>093-150000-
SOUTHEAST NEBRASKA

CITY           SKY/WX    TMP DP  RH WIND       PRES   REMARKS
LINCOLN        CLOUDY    70  51  51 SE9       30.06F
OMAHA EPPLEY   PTSUNNY   71  48  43 SE14      30.06F
BEATRICE       CLOUDY    69  52  54 S8        30.06F
FALLS CITY     PTSUNNY   71  54  54 S8        30.07F
NEBRASKA CITY  MOSUNNY   70  45  39 S10       30.07F
PLATTSMOUTH    SUNNY     69  49  47 SE6       30.07F
$$

NEZ044-045-051>053-067-150000-
OMAHA AREA

CITY           SKY/WX    TMP DP  RH WIND       PRES   REMARKS
OMAHA EPPLEY   PTSUNNY   71  48  43 SE14      30.06F
BLAIR          MOSUNNY   71  52  51 SE7       30.07F
FREMONT        MOSUNNY   71  50  46 SE7       30.07S
OFFUTT AFB     MOSUNNY   70  53  54 SE12      30.06F
PLATTSMOUTH    SUNNY     69  49  47 SE6       30.07F
WAHOO          FAIR      72  49  43 S8        30.06R
$$



USA.gov is the U.S. government's official web portal to all federal, state and local government web resources and services.